Terug naar catalogus

NOAA 16 DEB

ActiefSSO
NORAD 41364·DEBRIS·🇺🇸 United States

Gelanceerd Sep 21, 2000 vanaf Vandenberg Space Force Base

Loading…

Volgende Passages (komende 24 uur)

TLE

VersSource: Space-Track

Epoch: Sep 14, 2026, 14:14 UTC

1 41364U 00055JH  26257.59352959  .00002618  00000-0  10029-2 0  9998
2 41364  98.6157 311.8048 0013326 225.7173 134.2917 14.31393565548658

Volg NOAA 16 DEB in realtime met AllMySat

Download on the App Store